QZS-3 (MICHIBIKI-3)

Last updated on Mon Oct 14 2024 00:02:40 GMT+0000 (Coordinated Universal Time)

1 42917U 17048A 24287.49910687 -.00000349 00000+0 00000+0 0 9995 2 42917 0.0518 185.0787 0001717 2.1342 142.0827 1.00268702 26236
UTC large
Height (km)
Speed (km/s)
/
Latitude / Longitude
Inclination (degrees)
Orbital Period (minutes)
Azimuth
Elevation
Range (km)
Doppler Factor

Next 0 passes for location: London (51.5072 / 0.1276)

Sorry there are no passes over London.